Flight Track Log - Related Links

Times and Time Zones

All times are in EDT time to prevent confusion due to time zone crossing. See the N843DW flight status page for this flight to view local times or setup timezone preferences in your user account.

Time Position Orientation Groundspeed Altitude Reporting Facility
EDT Latitude Longitude Course Direction KTS MPH feet Rate Location/Type
Mon 06:27:44 PM 28.4167 -81.3333 139° Southeast 174 200 900  Level Orlando TRACON
Mon 06:28:56 PM 28.3500 -81.2667 139° Southeast 249 287 7,000 4,958 Climbing Orlando TRACON
Mon 06:30:08 PM 28.3667 -81.1833 77° East 275 316 12,800 3,138 Climbing Orlando TRACON
Mon 06:31:50 PM 28.5019 -81.1964 355° North 322 371 16,100 1,556 Climbing Jacksonville Center
Mon 06:32:50 PM 28.6025 -81.2303 344° North 346 398 17,000 450 Climbing Jacksonville Center
Mon 06:33:50 PM 28.7031 -81.2642 344° North 368 423 17,000  Level Jacksonville Center
Mon 06:34:50 PM 28.8036 -81.2956 345° North 373 429 17,000  Level Jacksonville Center
Mon 06:35:50 PM 28.9064 -81.3272 345° North 373 429 17,000  Level Jacksonville Center
Mon 06:36:50 PM 29.0028 -81.3636 342° North 373 429 17,000  Level Jacksonville Center
Mon 06:37:50 PM 29.1053 -81.3931 354° North 373 429 17,000 -350 Level Jacksonville Center
Mon 06:38:50 PM 29.2097 -81.4008 356° North 368 423 16,300 -919 Descending Jacksonville Center
Mon 06:39:41 PM 29.3017 -81.4114 354° North 363 418 15,300 -1,024 Descending Jacksonville Center
Mon 06:40:12 PM 29.3500 -81.4178 353° North 363 418 14,900 -870 Descending Jacksonville Center
Mon 06:40:50 PM 29.4083 -81.4242 355° North 368 423 14,300 -3,000 Descending Jacksonville Center
Mon 06:41:50 PM 29.5108 -81.4322 356° North 368 423 10,000 -1,290 Descending Jacksonville Center
Mon 06:42:23 PM 29.5756 -81.4383 355° North 360 414 12,300 951 Climbing Jacksonville Center
Mon 06:43:12 PM 29.6528 -81.4444 356° North 344 396 11,300 -1,103 Descending Jacksonville Center
Mon 06:43:50 PM 29.7008 -81.4508 353° North 357 411 10,700 -1,102 Descending Jacksonville Center
Mon 06:44:50 PM 29.7825 -81.4592 355° North 319 367 9,500 -1,300 Descending Jacksonville Center
Mon 06:45:50 PM 29.8619 -81.4653 356° North 298 343 8,100 -1,450 Descending Jacksonville Center
Mon 06:46:50 PM 29.9392 -81.4736 355° North 285 328 6,600 -1,500 Descending Jacksonville Center
Mon 06:47:50 PM 30.0164 -81.4797 356° North 279 321 5,100 -1,550 Descending Jacksonville Center
Mon 06:48:50 PM 30.0897 -81.4883 354° North 268 308 3,500 -1,500 Descending Jacksonville Center
Mon 06:49:50 PM 30.1628 -81.5017 351° North 268 308 2,100 -800 Descending Jacksonville Center
Mon 06:50:50 PM 30.2278 -81.5125 352° North 254 292 1,900 -250 Descending Jacksonville Center
Mon 06:51:50 PM 30.2989 -81.5381 343° North 237 273 1,600 -450 Descending Jacksonville Center
Mon 06:52:50 PM 30.3453 -81.5639 334° Northwest 217 250 1,000 -600 Descending Jacksonville Center
Mon 06:53:20 PM 30.3617 -81.5542 27° Northeast 153 176 700 -700 Descending Jacksonville Center
Mon 06:53:50 PM 30.3533 -81.5350 117° Southeast 95 109 300 -333 Descending Jacksonville Center
Mon 06:54:50 PM 30.3614 -81.5253 46° Northeast 59 68 200 -100 Descending Jacksonville Center
Mon 06:56:00 PM 30.3363 -81.5144 North  Level Estimated

Login

Don't have an account? Register now (free) for customized features, flight alerts, and more!